Regional Weather Roundup
Issued by NWS

Home | Current Version | Previous Version | Graphics & Text | Print | Product List | Glossary On
Versions: 1 2 3 4 5 6 7 8 9 10 11 12 13 14 15 16 17 18 19 20 21 22 23 24 25 26 27
000
ASUS45 KTFX 271610
RWRMT
MONTANA REGIONAL WEATHER ROUNDUP
NATIONAL WEATHER SERVICE GREAT FALLS MT
1000 AM MDT FRI MAY 27 2016

NOTE: "FAIR" INDICATES FEW OR NO CLOUDS BELOW 12000 FEET WITH NO
SIGNIFICANT WEATHER AND/OR OBSTRUCTIONS TO VISIBILITY.

MTZ001>007-043-271700-
WEST OF THE DIVIDE

CITY           SKY/WX    TMP DP  RH WIND       PRES   REMARKS
KALISPELL      CLOUDY    53  50  89 S5        29.92R
MISSOULA       PTSUNNY   55  45  68 VRB3      29.96F
BUTTE          MOSUNNY   50  38  63 CALM      29.96F
MULLAN PASS    CLOUDY    33  32  96 VRB6      29.98S FOG     WCI  28
ANACONDA         N/A     54  39  58 S5        29.93F
DEER LODGE       N/A     54  45  71 N3        29.95F
EUREKA           N/A     54  43  66 SE6       29.92R
HAMILTON         N/A     54  41  62 CALM      29.94F
LIBBY            N/A     54  37  54 CALM      29.94R
$$

MTZ008-052>055-271700-
SOUTHWEST MONTANA

CITY           SKY/WX    TMP DP  RH WIND       PRES   REMARKS
BOZEMAN        CLOUDY    50  45  83 NE6       29.95F
DILLON         SUNNY     51  42  71 VRB3      29.94F
W YELLOWSTONE  CLOUDY    45  39  81 NE3       30.00F
ENNIS          CLOUDY    50  43  76 N10       30.01S
$$

MTZ009-010-012-014-046-048-049-054-271700-
EAST SLOPES AND CENTRAL MONTANA

CITY           SKY/WX    TMP DP  RH WIND       PRES   REMARKS
CUT BANK       PTSUNNY   58  40  51 W20G29    29.85S
GREAT FALLS    CLOUDY    59  45  59 SW9       29.88S
MALMSTROM AFB  PTSUNNY   59  46  62 SW9       29.88F
HELENA         MOSUNNY   56  48  74 VRB7      29.91F
CHOTEAU          N/A     59  41  51 S6        29.86F
$$

MTZ011-013-016-021-045-047-050-051-271700-
NORTH CENTRAL MONTANA

CITY           SKY/WX    TMP DP  RH WIND       PRES   REMARKS
HAVRE          SUNNY     61  50  67 E6        29.86F
LEWISTOWN      SUNNY     61  45  55 NE5       29.88F
N BAR RANCH      N/A     59  46  63 S6        29.91F
CHINOOK          N/A     61  50  67 E13       29.87S
$$

MTZ017>020-022>027-061-062-271700-
NORTHEAST MONTANA

CITY           SKY/WX    TMP DP  RH WIND       PRES   REMARKS
GLASGOW        CLOUDY    60  48  64 VRB5      29.88F
JORDAN           N/A     56  49  77 N8        29.88F
SIDNEY         SUNNY     59  52  77 NE6       29.87F
WOLF POINT     MOSUNNY   63  50  62 VRB3      29.89S
POPLAR           N/A     61  48  63 CALM      29.88F
$$

MTZ028>42-056>058-271700-
SOUTHCENTRAL AND SOUTHEAST MONTANA

CITY           SKY/WX    TMP DP  RH WIND       PRES   REMARKS
BAKER          MOSUNNY   61  49  64 NW9       29.87F
BILLINGS       MOSUNNY   59  45  59 S3        29.89F
LIVINGSTON     CLOUDY    56  41  57 W21G29    29.91F
MILES CITY     PTSUNNY   60  51  72 NW6       29.86F
FORSYTH          N/A     55  54  94 W7        29.87F
$$

REGIONAL REPORTS...DAKOTAS

CITY           SKY/WX    TMP DP  RH WIND       PRES   REMARKS
WILLISTON      PTSUNNY   64  51  62 N9        29.86F
MINOT          CLOUDY    61  54  77 NW8       29.82S
DICKINSON      MOSUNNY   62  46  55 N7        29.83F
BEACH            N/A     59  54  82 NW9       29.89S
CROSBY         PTSUNNY   57  57 100 N7        29.89S
WATFORD CITY   PTSUNNY   59  52  77 NW5       29.87F
BISMARCK       PTSUNNY   65  52  62 N8        29.83S
GRAND FORKS    PTSUNNY   67  53  61 VRB3      29.81S
FARGO          MOSUNNY   70  57  63 NE7       29.78F
BUFFALO SD       N/A     63  45  51 N9        29.78F
RAPID CITY     CLOUDY    62  47  57 N12       29.85S
$$

REGIONAL REPORTS...WYOMING/IDAHO/WASHINGTON

CITY           SKY/WX    TMP DP  RH WIND       PRES   REMARKS
GILLETTE       MOSUNNY   58  43  57 NW12      29.90S
SHERIDAN       MOSUNNY   60  46  59 VRB3      29.89F
BUFFALO WY     SUNNY     58  39  49 VRB5      29.92F
CODY           SUNNY     59  37  44 S15       29.91F
YELLOWSTONE LA   N/A     40  37  89 CALM      30.06F
IDAHO FALLS    SUNNY     56  41  57 SW18      29.96S
SALMON         CLOUDY    54  39  58 CALM      29.91F
BOISE          SUNNY     55  36  48 NW10      30.02S
SPOKANE        CLOUDY    47  38  71 S13       29.99R
$$

REGIONAL REPORTS...ALBERTA

CITY           SKY/WX    TMP DP  RH WIND       PRES   REMARKS
EDMONTON       CLOUDY    54  48  82 N2        29.78S
CALGARY        CLOUDY    46  43  87 N9        29.81S
LETHBRIDGE     PTSUNNY   59  45  58 W7        29.81F
MEDICINE HAT   LGT RAIN  57  50  77 SE7       29.83S
WATERTON GATE    N/A     54  36  50 SW13G18     N/A
CARDSTON         N/A     59  36  41 SW12G20     N/A
MILK RIVER       N/A     57  45  62 SW5         N/A
$$

REGIONAL REPORTS...SASKATCHEWAN

CITY           SKY/WX    TMP DP  RH WIND       PRES   REMARKS
SWIFT CURRENT  SUNNY     63  48  59 S14       29.88F
REGINA         MOSUNNY   66  54  63 E5        29.88F
SASKATOON      MOSUNNY   68  50  52 SE8       29.89F
CYPRESS HILLS    N/A     54  46  76 S12G18      N/A
VAL MARIE        N/A     59  48  67 S7          N/A
ROCKGLEN         N/A     59  48  67 N5          N/A
$$




USA.gov is the U.S. government's official web portal to all federal, state and local government web resources and services.